Find Starlink 3298

NORAD ID: 50165 Int'l Des: 2021-125 Owner: SPXS Country: US Constellation: starlink operational
LEOCIRCULAR

リアルタイム位置

3D地球を読み込み中...

Starlink 3298について

説明を読み込み中...

次回通過

Passes for default location (London). Set your location on the main map for personalized predictions.

高度履歴

Loading altitude history...

軌道要素

1 50165U 21125K 26123.07387106 -.00002533 00000-0 -14112-3 0 9991
2 50165 53.2204 14.9818 0001664 93.5224 266.5959 15.08840857244714
Epoch: May 3, 2026 • Age: 12 hours

現在のステータス

高度 542.0 km
速度 7.60 km/s
衛星直下点 37.87°N, 93.88°E
打ち上げ日 Dec 18, 2021
運用期間 4.3 years
タイプ internet

技術仕様

分類 Payload
質量 290.00 kg
乾燥質量 270.00 kg
総質量 290.00 kg
長さ 0.20 m
直径 2.80 m
スパン 9.00 m
形状 Box + pan
製造者 SPXS
バスタイプ Starlink
フェーズステータス In Orbit
所有者/国 SPXS/US

Most Searched